Wind_Speed
44 44 45 46 46 47 47 46 46 46 46 47 48 48 48 48 47 47 47 48 48 48 48 48 47 48 47 47 47 48 48 48 47 47 47 47 47 47 47 47 46 47 47
45 45 45 45 46 47 47 46 46 46 47 47 47 48 48 48 48 48 49 49 49 48 48 48 48 49 49 49 49 49 49 49 49 48 48 48 48 47 47 48 48 48 48
44 45 45 46 46 47 47 47 46 47 47 47 47 48 49 49 49 49 50 49 49 49 49 49 49 49 49 49 50 50 50 50 50 49 49 49 48 48 49 49 49 50 50
42 44 44 44 45 46 47 47 46 47 48 48 47 48 48 48 49 50 50 49 49 50 50 50 50 50 50 50 50 50 50 51 51 50 50 50 50 50 50 50 50 51 51
41 42 42 43 44 45 46 48 48 47 47 47 48 49 49 49 49 49 49 50 50 50 51 51 51 50 51 51 51 51 52 52 52 52 52 52 52 52 51 51 52 52 52
41 42 43 43 43 44 44 45 47 48 47 47 48 49 49 49 49 49 50 50 50 50 51 50 50 51 51 52 52 53 53 54 54 53 53 53 53 53 53 53 53 53 53
41 43 44 44 44 44 44 44 45 46 47 47 47 48 48 49 49 50 50 50 50 51 51 51 51 51 52 52 53 54 55 55 55 55 55 54 54 54 54 53 53 53 53
39 41 43 44 45 44 44 44 43 44 45 46 46 47 48 49 49 49 50 50 51 51 52 52 52 53 53 53 54 54 54 55 55 55 55 54 54 54 54 54 53 53 53
39 40 41 42 43 44 43 42 42 43 43 44 45 47 48 49 49 49 50 50 50 51 51 52 52 52 52 53 53 53 54 54 54 54 54 54 54 55 55 55 54 54 54
38 39 40 40 41 42 42 41 41 41 43 44 45 47 48 48 49 49 50 50 50 50 51 51 51 51 52 52 52 53 53 53 53 54 54 54 54 54 55 55 54 54 54
36 37 37 38 39 40 41 41 42 42 42 43 45 46 47 47 48 49 49 49 50 50 50 50 50 50 51 51 51 52 52 52 53 53 54 54 54 54 54 54 54 53 53
35 36 36 37 39 40 41 42 42 42 43 43 43 44 44 44 46 47 48 49 49 49 49 49 49 49 50 50 50 51 51 52 52 53 53 54 53 53 53 53 52 52 52
35 35 35 36 37 38 40 41 42 43 43 43 43 43 43 44 45 45 46 47 48 48 48 49 49 49 49 50 50 51 51 51 51 51 52 52 52 52 52 52 52 52 52
35 36 36 36 36 37 39 40 41 42 42 42 43 43 43 43 44 44 45 45 46 47 47 47 48 48 49 50 50 50 50 50 51 51 51 51 51 50 50 50 50 50 50
34 36 37 37 37 38 38 39 40 41 41 42 42 42 43 42 42 43 43 44 44 44 45 46 47 47 48 48 48 49 49 49 49 49 49 48 48 48 48 48 48 49 49
33 34 35 37 38 39 39 40 40 40 41 41 41 42 42 42 42 42 42 43 43 44 44 45 45 46 46 46 47 47 47 47 47 47 47 47 47 47 47 47 48 48 49
32 33 34 35 36 38 38 39 39 39 40 40 41 41 42 42 43 43 43 43 43 43 43 44 44 44 45 45 45 45 46 46 46 47 47 47 47 47 47 48 48 49 49
32 32 33 34 35 35 36 37 37 38 38 38 39 40 40 41 41 42 43 43 43 43 43 43 43 44 44 44 44 45 45 45 46 46 47 47 48 48 48 49 49 49 49
31 32 32 32 32 33 33 34 34 35 36 37 39 39 40 40 41 42 42 42 41 42 42 42 43 43 44 44 44 44 45 45 46 46 46 47 47 48 48 49 49 49 49
30 31 31 31 31 31 32 32 33 33 34 36 37 38 39 39 40 40 41 41 41 41 42 42 42 42 43 44 44 44 45 45 46 47 47 48 48 48 48 49 49 49 48
30 30 30 30 31 31 32 32 33 33 34 34 35 36 37 38 39 39 39 40 41 41 42 42 42 43 43 44 45 45 45 46 46 46 47 47 48 48 48 49 49 48 47
30 29 29 30 30 31 31 32 32 33 34 35 35 36 37 37 38 38 39 39 40 41 41 42 42 43 43 44 44 45 45 45 45 46 46 46 46 47 47 47 47 47 47
28 28 29 29 29 30 31 31 32 33 33 35 35 36 37 37 37 38 38 39 39 40 40 41 42 43 43 44 44 44 44 44 45 45 45 46 46 46 46 46 46 46 46
27 27 27 28 29 30 30 31 32 32 33 34 35 35 36 36 36 37 37 38 39 40 40 41 41 42 43 43 43 43 43 44 44 44 45 45 45 45 45 44 44 44 44
26 27 27 28 28 29 30 30 31 33 33 34 34 35 35 36 36 37 37 38 38 39 40 41 41 42 42 42 42 43 43 43 44 44 44 44 44 44 43 43 43 43 42
27 27 27 27 28 29 30 30 32 33 33 34 34 34 35 35 36 37 38 38 39 39 39 40 40 41 41 41 41 41 41 41 42 42 41 41 41 41 41 40 40 40 40
Wind_Direction
249 249 248 248 248 248 249 250 252 253 254 256 256 256 256 257 258 259 260 261 262 263 264 264 265 265 267 268 268 268 268 269 270 271 272 273 273 273 273 272 271 271 270
250 251 250 249 249 249 249 251 253 254 255 257 257 257 257 257 258 259 260 261 262 263 263 264 264 266 267 268 268 268 269 270 271 271 272 272 272 272 272 272 272 271 270
251 252 253 252 250 250 251 252 254 255 255 256 257 258 257 257 258 259 261 261 263 264 264 265 265 266 268 269 269 269 269 269 271 271 271 271 272 272 272 272 272 272 271
252 253 253 252 251 252 253 254 255 256 255 256 257 258 258 259 259 260 261 262 263 264 265 266 266 267 268 269 269 269 269 270 270 271 271 270 271 272 272 272 273 272 272
253 252 252 252 254 255 255 255 255 257 257 257 257 259 259 260 261 261 262 262 264 265 265 266 266 267 268 269 269 269 269 270 271 271 270 271 271 272 272 273 273 272 272
253 252 252 252 254 255 256 257 256 257 257 258 258 259 259 260 261 262 263 263 264 265 266 266 266 267 267 267 268 268 269 270 270 271 271 271 271 271 272 273 273 272 272
253 253 252 252 254 256 257 258 258 258 258 259 259 259 259 260 261 262 264 265 265 266 266 266 266 267 267 267 267 268 269 269 270 270 271 270 271 271 271 272 272 273 272
254 254 254 254 255 256 258 258 259 259 259 259 260 260 260 260 261 263 264 265 266 267 267 267 267 267 267 267 267 268 269 270 270 271 271 270 270 270 271 271 272 272 272
255 255 255 256 256 257 258 258 259 259 260 260 261 261 260 261 262 263 264 265 266 267 267 267 268 268 268 268 268 268 269 270 270 270 271 270 270 270 271 271 272 272 272
256 256 256 257 257 258 258 258 259 259 260 261 262 262 261 262 263 264 265 265 267 267 267 267 267 267 268 268 268 269 269 269 270 270 271 271 270 271 271 272 272 272 273
257 257 259 259 258 259 259 259 259 260 261 262 263 264 263 263 264 265 265 266 267 267 268 268 268 268 268 268 269 269 269 269 270 271 271 271 271 272 272 272 273 273 273
259 259 260 260 260 259 260 261 261 262 262 263 264 264 265 265 265 266 266 266 267 268 268 268 268 268 268 268 268 269 269 269 270 270 271 272 271 271 271 271 272 272 272
261 261 261 262 262 262 262 262 263 264 264 265 265 265 265 267 267 268 268 268 268 268 268 269 269 269 269 269 269 269 269 270 271 271 271 271 271 270 271 271 271 272 273
262 262 262 263 263 264 264 264 264 265 266 265 265 265 266 267 267 269 269 270 270 269 269 269 269 269 269 269 269 269 270 271 271 271 271 271 270 270 270 270 270 271 273
264 264 264 264 264 265 266 266 266 265 266 265 266 266 267 267 268 269 269 270 270 270 270 270 270 270 270 270 270 270 271 272 272 272 271 271 270 270 270 270 271 272 273
267 266 266 266 266 266 267 267 266 266 267 266 266 267 268 268 268 269 270 270 271 271 271 271 270 270 270 270 270 270 270 271 271 271 271 270 270 270 271 271 272 272 273
270 269 268 267 268 268 268 268 267 267 267 267 267 268 270 270 270 269 270 271 271 271 271 270 270 270 270 269 270 270 270 271 270 270 270 270 271 271 271 272 273 273 273
273 272 271 270 270 270 269 269 268 268 267 267 268 270 271 271 271 270 271 272 272 271 271 271 270 270 271 271 271 272 272 271 271 271 271 271 271 271 272 272 273 273 274
275 274 273 272 272 271 270 269 269 268 268 269 270 271 271 272 272 272 272 272 272 271 271 271 271 271 271 272 273 273 272 272 272 272 272 272 272 272 272 272 273 274 274
277 276 274 273 272 272 271 271 271 270 270 271 272 273 272 272 273 273 273 272 272 272 272 272 272 273 272 272 273 273 273 273 274 274 274 274 274 274 273 273 273 274 274
277 277 276 275 274 273 272 272 273 274 274 274 274 275 275 275 274 274 274 274 274 274 273 273 273 274 274 274 274 273 274 274 275 275 275 275 275 275 275 274 274 273 273
278 277 277 277 276 275 275 274 275 276 276 276 277 277 277 277 277 276 275 275 275 275 274 274 274 274 275 275 275 274 274 275 275 276 276 276 276 275 274 274 274 273 273
280 279 279 279 279 278 277 277 277 278 279 279 279 279 279 278 277 277 276 276 276 275 275 275 275 276 276 276 275 275 275 275 276 276 276 276 275 275 275 274 273 272 272
282 281 281 281 280 280 279 279 280 280 281 281 281 281 280 279 278 278 277 277 277 276 276 276 276 276 276 276 276 276 276 277 277 277 277 276 276 275 274 273 273 272 273
283 283 283 282 281 281 281 282 282 283 283 282 282 282 281 281 281 281 280 280 279 278 278 278 278 278 277 277 277 277 277 277 277 277 277 276 275 274 273 273 272 272 272
285 284 284 283 284 284 285 285 285 286 285 284 284 283 283 283 283 284 284 283 281 280 280 280 279 279 278 278 278 278 278 278 278 278 277 276 274 273 273 272 272 272 271
Height
5603 5606 5609 5612 5615 5619 5622 5626 5629 5632 5634 5636 5639 5641 5643 5646 5648 5650 5652 5653 5655 5656 5657 5658 5659 5660 5661 5661 5662 5662 5663 5663 5664 5664 5663 5663 5662 5661 5661 5661 5661 5660 5660
5592 5594 5597 5600 5604 5607 5611 5615 5617 5620 5622 5625 5627 5629 5631 5633 5635 5637 5639 5641 5642 5643 5644 5645 5646 5647 5648 5648 5649 5649 5649 5650 5650 5651 5650 5650 5649 5649 5648 5648 5648 5648 5648
5581 5583 5586 5589 5592 5596 5599 5602 5605 5608 5610 5612 5614 5617 5619 5621 5622 5624 5626 5628 5629 5630 5631 5632 5633 5634 5634 5635 5635 5635 5636 5636 5636 5636 5637 5636 5636 5635 5635 5635 5634 5634 5634
5570 5572 5575 5578 5581 5584 5587 5590 5593 5595 5598 5600 5602 5604 5606 5608 5610 5611 5613 5614 5616 5617 5618 5618 5619 5620 5621 5621 5621 5621 5621 5622 5622 5622 5622 5622 5622 5621 5621 5621 5621 5621 5621
5559 5562 5564 5567 5570 5572 5575 5578 5580 5583 5585 5587 5589 5591 5593 5594 5596 5598 5599 5601 5602 5603 5604 5604 5605 5606 5606 5606 5607 5607 5607 5607 5607 5607 5607 5607 5608 5607 5607 5607 5607 5606 5606
5549 5551 5554 5556 5559 5561 5563 5565 5568 5570 5572 5574 5576 5578 5580 5581 5583 5584 5585 5587 5588 5589 5590 5590 5591 5591 5591 5591 5592 5592 5592 5593 5593 5593 5593 5593 5592 5592 5592 5592 5592 5592 5593
5537 5540 5542 5545 5547 5549 5551 5553 5555 5557 5559 5561 5563 5565 5566 5568 5569 5570 5571 5572 5574 5574 5575 5576 5576 5576 5576 5576 5577 5577 5577 5577 5577 5578 5577 5577 5577 5577 5577 5576 5576 5576 5577
5526 5528 5530 5533 5535 5537 5539 5541 5543 5544 5546 5548 5550 5551 5552 5554 5555 5556 5557 5558 5559 5560 5560 5561 5561 5561 5561 5561 5562 5562 5562 5562 5562 5562 5562 5562 5561 5561 5561 5561 5560 5561 5561
5515 5517 5519 5521 5523 5525 5527 5529 5530 5532 5534 5535 5537 5538 5539 5540 5541 5541 5542 5543 5544 5545 5545 5545 5545 5546 5546 5546 5546 5547 5547 5546 5546 5546 5546 5546 5545 5545 5545 5545 5545 5545 5546
5505 5507 5508 5510 5512 5514 5515 5517 5518 5520 5521 5522 5523 5524 5525 5526 5526 5527 5528 5529 5530 5530 5530 5530 5530 5530 5530 5530 5530 5530 5530 5530 5530 5530 5530 5530 5529 5529 5529 5529 5529 5529 5529
5494 5495 5497 5498 5500 5502 5503 5505 5506 5508 5509 5510 5511 5511 5512 5512 5512 5513 5513 5514 5514 5515 5515 5515 5515 5515 5514 5514 5514 5514 5514 5514 5514 5514 5514 5514 5514 5514 5514 5514 5514 5514 5514
5484 5485 5486 5487 5489 5490 5491 5493 5494 5495 5496 5496 5497 5497 5498 5498 5498 5498 5499 5499 5499 5500 5500 5500 5500 5499 5499 5499 5499 5499 5498 5498 5498 5499 5499 5499 5499 5499 5498 5498 5498 5498 5498
5473 5474 5475 5476 5477 5478 5479 5480 5481 5482 5483 5483 5484 5484 5485 5485 5485 5485 5485 5485 5485 5485 5485 5485 5485 5485 5484 5484 5484 5484 5483 5483 5483 5483 5483 5483 5483 5483 5483 5483 5483 5483 5483
5462 5463 5464 5465 5466 5467 5467 5468 5469 5469 5470 5470 5471 5471 5471 5471 5471 5471 5471 5471 5470 5470 5470 5470 5470 5470 5470 5470 5469 5469 5468 5468 5467 5468 5468 5468 5467 5468 5468 5468 5468 5468 5468
5452 5452 5453 5454 5455 5455 5455 5456 5456 5457 5457 5458 5458 5458 5458 5458 5458 5458 5457 5457 5457 5456 5456 5456 5455 5455 5455 5455 5454 5454 5454 5453 5453 5453 5453 5452 5452 5453 5453 5453 5453 5453 5453
5441 5441 5442 5443 5443 5443 5444 5444 5444 5444 5445 5445 5445 5445 5445 5445 5445 5444 5444 5444 5443 5442 5442 5442 5441 5441 5440 5440 5440 5440 5439 5439 5438 5438 5438 5438 5438 5438 5438 5438 5438 5438 5439
5431 5431 5431 5431 5431 5432 5432 5432 5432 5432 5432 5432 5432 5432 5432 5432 5431 5431 5431 5430 5430 5429 5429 5428 5427 5427 5426 5426 5425 5425 5425 5424 5424 5424 5424 5424 5424 5424 5424 5424 5424 5423 5423
5421 5420 5420 5420 5420 5420 5420 5420 5420 5420 5421 5420 5420 5420 5419 5419 5418 5418 5417 5417 5416 5415 5415 5414 5414 5413 5413 5412 5411 5411 5410 5410 5410 5409 5409 5409 5409 5409 5409 5409 5408 5408 5408
5411 5410 5410 5409 5409 5409 5409 5409 5409 5409 5409 5409 5408 5407 5407 5406 5405 5405 5404 5403 5403 5402 5401 5401 5400 5400 5399 5398 5397 5397 5396 5395 5395 5395 5395 5394 5394 5394 5394 5393 5393 5393 5392
5401 5400 5400 5399 5399 5399 5399 5399 5398 5398 5398 5397 5397 5396 5395 5394 5393 5392 5391 5390 5390 5389 5388 5388 5387 5386 5385 5384 5384 5383 5382 5381 5381 5380 5380 5379 5379 5379 5378 5378 5378 5377 5377
5391 5390 5390 5389 5389 5389 5389 5388 5388 5387 5387 5386 5385 5384 5383 5382 5381 5380 5379 5378 5377 5376 5375 5374 5374 5373 5372 5371 5370 5369 5368 5367 5366 5366 5365 5364 5364 5363 5363 5362 5362 5362 5362
5382 5381 5380 5380 5379 5379 5378 5378 5377 5377 5376 5375 5373 5372 5371 5370 5368 5367 5366 5365 5363 5362 5362 5361 5360 5359 5358 5357 5356 5355 5354 5353 5352 5351 5350 5349 5349 5348 5347 5347 5347 5347 5346
5372 5371 5371 5370 5369 5368 5368 5367 5366 5365 5364 5363 5362 5360 5359 5357 5356 5355 5353 5352 5351 5349 5348 5347 5346 5345 5344 5342 5341 5340 5339 5338 5337 5336 5335 5334 5334 5333 5333 5332 5332 5332 5332
5363 5362 5361 5360 5359 5358 5358 5357 5356 5354 5353 5352 5350 5349 5347 5345 5344 5342 5341 5339 5338 5337 5335 5334 5333 5331 5330 5328 5327 5326 5325 5324 5323 5322 5321 5320 5319 5319 5318 5318 5318 5317 5317
5355 5353 5352 5351 5350 5349 5348 5346 5345 5344 5342 5340 5339 5337 5335 5334 5332 5330 5328 5327 5325 5323 5322 5320 5319 5317 5316 5314 5313 5312 5310 5309 5308 5307 5306 5306 5305 5304 5304 5303 5303 5303 5303
5346 5345 5343 5342 5340 5339 5338 5336 5334 5333 5331 5329 5327 5325 5324 5322 5320 5318 5316 5314 5312 5310 5309 5307 5305 5303 5302 5300 5299 5298 5296 5295 5294 5293 5292 5292 5291 5290 5290 5290 5290 5289 5290